Flag for Germany Weather past 2 weeks in Wolfsburg, Lower Saxony, Germany

Now
41 °F

Quite cool.


Feels Like: 34 °F
Forecast: 27 / 34 °F
Wind: 13 mph from West

Location: Celle Airport

Current Time: Dec 25, 2014 at 4:53:16 PM

Latest Report: Dec 25, 2014 at 4:20 PM


Visibility: N/A

Pressure: 30.04 "Hg

Humidity: 70%

Dew point: 32 °F

Location of WolfsburgLocation

Historic Weather in Wolfsburg — Graph

°F

Wolfsburg temperature yesterday

Maximum temperature yesterday: 50 °F (at 12:20 AM)
Minimum temperature yesterday: 39 °F (at 11:20 PM)
Average temperature yesterday: 46 °F

Past Weeks' High & Low Weather Summary

 TemperatureHumidityPressure
High54 °F (Dec 18, 3:20 PM)100% (Dec 13, 10:20 PM)30.27 "Hg (Dec 13, 10:20 PM)
Low32 °F (Dec 15, 12:20 AM)66% (Dec 25, 3:20 PM)29.33 "Hg (Dec 12, 1:20 PM)
Average43 °F88%29.83 "Hg
* Reported Dec 10 3:20 PM — Dec 25 3:20 PM, Wolfsburg, Weather by CustomWeather, © 2014

Note: Actual official high and low records may vary slightly from our data, if they occured in-between our weather recording intervals... More about our weather records

Advertising

Wolfsburg weather history for previous 24 hours

 ConditionsComfort  
Time TempWeatherWind HumidityBarometerVisibility
3:20 PM
Dec 25
43 °FQuite cool.14 mph66%30.04 "HgN/A
2:20 PM43 °FQuite cool.15 mph71%30.01 "HgN/A
1:20 PM43 °FQuite cool.14 mph76%30.01 "HgN/A
12:20 PM43 °FQuite cool.13 mph76%30.01 "HgN/A
11:20 AM41 °FQuite cool.12 mph87%30.01 "HgN/A
10:20 AM41 °FQuite cool.14 mph87%30.01 "Hg2 mi
9:20 AM41 °FQuite cool.18 mph87%29.98 "HgN/A
8:20 AM41 °FQuite cool.21 mph81%29.98 "HgN/A
7:20 AM41 °FQuite cool.15 mph81%29.95 "HgN/A
6:20 AM41 °FQuite cool.18 mph81%29.95 "HgN/A
5:20 AM41 °FQuite cool.16 mph81%29.98 "HgN/A
4:20 AM41 °FQuite cool.12 mph81%29.98 "HgN/A
3:20 AM39 °FChilly.10 mph87%29.98 "HgN/A
2:20 AM39 °FChilly.10 mph87%29.98 "HgN/A
1:20 AM39 °FChilly.12 mph87%29.98 "HgN/A
12:20 AM39 °FChilly.12 mph87%29.98 "HgN/A
11:20 PM
Dec 24
39 °FChilly.9 mph87%29.95 "HgN/A
10:20 PM41 °FQuite cool.9 mph81%29.95 "HgN/A
9:20 PM41 °FQuite cool.7 mph87%29.95 "HgN/A
8:20 PM41 °FQuite cool.7 mph87%29.92 "HgN/A
7:20 PM41 °FQuite cool.9 mph87%29.89 "HgN/A
6:20 PM41 °FQuite cool.7 mph93%29.89 "HgN/A
5:20 PM43 °FQuite cool.8 mph93%29.86 "HgN/A
4:20 PM45 °FQuite cool.9 mph93%29.86 "Hg4 mi
Weather by CustomWeather, © 2014

See weather overviewHow to use our weather pages